KQ4KX Weather Reports


time (UTC)temp
F
wind
direction
speed
knots
gust
knots
rain 1hr
in
rain 24hr
in
rain mn
in
humidity
%
barometer
mb
20260831195602 79 100 12.2 20.0 0.00 0.00 0.00 94 1016.7
20260831195230 80 98 10.4 16.5 0.00 0.00 0.00 93 1016.5
20260831195106 80 98 10.4 16.5 0.00 0.00 0.00 93 1016.5
20260831194532 81 95 8.7 18.2 0.00 0.00 0.00 92 1016.6
20260831194212 81 96 9.6 18.2 0.00 0.00 0.00 89 1016.7
20260831194033 81 96 9.6 18.2 0.00 0.00 0.00 89 1016.7
20260831193004 84 95 16.5 26.9 0.00 0.00 0.00 85 1017.0
20260831192713 85 90 12.2 26.9 0.00 0.00 0.00 83 1016.6
20260831192504 85 90 12.2 26.9 0.00 0.00 0.00 83 1016.6
20260831192128 90 76 3.5 12.2 0.00 0.00 0.00 72 1016.2
20260831191933 90 76 3.5 12.2 0.00 0.00 0.00 72 1016.2
20260831191718 91 55 2.6 6.1 0.00 0.00 0.00 71 1016.1
20260831191434 91 55 2.6 6.1 0.00 0.00 0.00 71 1016.1
20260831190131 93 32 1.7 3.5 0.00 0.00 0.00 66 1015.9
20260831185833 93 32 1.7 3.5 0.00 0.00 0.00 66 1015.9
20260831184632 92 68 1.7 6.1 0.00 0.00 0.00 70 1016.2
20260831184233 92 68 1.7 6.1 0.00 0.00 0.00 70 1016.2
20260831183844 91 45 1.7 3.5 0.00 0.00 0.00 69 1016.3
20260831183703 91 45 1.7 3.5 0.00 0.00 0.00 69 1016.3
20260831182912 91 36 1.7 2.6 0.00 0.00 0.00 69 1016.3
20260831182703 91 36 1.7 2.6 0.00 0.00 0.00 69 1016.3
20260831180819 93 87 0.9 2.6 0.00 0.00 0.00 68 1016.4
20260831180603 93 87 0.9 2.6 0.00 0.00 0.00 68 1016.4
20260831175602 92 85 0.9 6.1 0.00 0.00 0.00 67 1016.5
20260831175033 92 75 0.9 3.5 0.00 0.00 0.00 72 1016.6
20260831174507 91 81 0.9 1.7 0.00 0.00 0.00 70 1016.6
20260831174004 91 70 0.9 1.7 0.00 0.00 0.00 74 1016.8
20260831173813 91 42 0.9 2.6 0.00 0.00 0.00 71 1017.1
20260831173503 91 42 0.9 2.6 0.00 0.00 0.00 71 1017.1
20260831173415 91 40 1.7 3.5 0.00 0.00 0.00 71 1017.2
20260831173002 91 40 1.7 3.5 0.00 0.00 0.00 71 1017.2
20260831172211 91 38 0.9 2.6 0.00 0.00 0.00 71 1017.2
20260831171934 91 38 0.9 2.6 0.00 0.00 0.00 71 1017.2
20260831170833 91 271 0.9 3.5 0.00 0.00 0.00 71 1017.4
20260831170333 91 113 1.7 3.5 0.00 0.00 0.00 72 1017.4
20260831165834 91 100 1.7 3.5 0.00 0.00 0.00 72 1017.6
20260831164803 91 103 1.7 2.6 0.00 0.00 0.00 73 1017.7
20260831164644 91 100 1.7 3.5 0.00 0.00 0.00 74 1017.8
20260831164233 91 100 1.7 3.5 0.00 0.00 0.00 74 1017.8
20260831163933 90 94 1.7 3.5 0.00 0.00 0.00 77 1017.9
20260831163703 90 94 1.7 3.5 0.00 0.00 0.00 77 1017.9
20260831161846 90 82 0.9 2.6 0.00 0.00 0.00 76 1018.1
20260831161605 90 82 0.9 2.6 0.00 0.00 0.00 76 1018.1
20260831161103 90 94 1.7 3.5 0.00 0.00 0.00 75 1018.1
20260831160032 89 88 1.7 5.2 0.00 0.00 0.00 75 1018.3
20260831155534 89 88 1.7 5.2 0.00 0.00 0.00 77 1018.3
20260831155313 89 87 0.9 2.6 0.00 0.00 0.00 76 1018.4
20260831155033 89 87 0.9 2.6 0.00 0.00 0.00 76 1018.4
20260831154533 89 80 1.7 3.5 0.00 0.00 0.00 77 1018.3
20260831154240 89 73 1.7 3.5 0.00 0.00 0.00 78 1018.4
20260831154004 89 73 1.7 3.5 0.00 0.00 0.00 78 1018.4
20260831153705 88 82 1.7 3.5 0.00 0.00 0.00 80 1018.4
20260831153435 88 82 1.7 3.5 0.00 0.00 0.00 80 1018.4
20260831153214 88 81 1.7 3.5 0.00 0.00 0.00 79 1018.4
20260831152904 88 81 1.7 3.5 0.00 0.00 0.00 79 1018.4
20260831151834 87 65 0.9 3.5 0.00 0.00 0.00 81 1018.5
20260831151639 87 54 0.9 3.5 0.00 0.00 0.00 83 1018.4
20260831151333 87 54 0.9 3.5 0.00 0.00 0.00 83 1018.4
20260831150832 87 49 0.9 2.6 0.00 0.00 0.00 81 1018.4
20260831150634 86 48 0.9 1.7 0.00 0.00 0.00 83 1018.3
20260831150304 86 48 0.9 1.7 0.00 0.00 0.00 83 1018.3
20260831145733 86 32 1.7 2.6 0.00 0.00 0.00 83 1018.3
20260831145628 86 359 1.7 2.6 0.00 0.00 0.00 83 1018.3
20260831145233 86 359 1.7 2.6 0.00 0.00 0.00 83 1018.3
20260831144733 85 35 1.7 3.5 0.00 0.00 0.00 84 1018.2
20260831144233 85 96 1.7 3.5 0.00 0.00 0.00 85 1018.1
20260831143704 84 105 1.7 2.6 0.00 0.00 0.00 86 1018.1
20260831143203 84 95 0.9 2.6 0.00 0.00 0.00 87 1018.1
20260831142204 83 83 0.9 2.6 0.00 0.00 0.00 88 1018.3
20260831140602 82 69 0.9 3.5 0.00 0.00 0.00 91 1018.2
20260831140417 82 73 0.9 3.5 0.00 0.00 0.00 91 1018.2
20260831140104 82 73 0.9 3.5 0.00 0.00 0.00 91 1018.2
20260831135603 82 85 1.7 3.5 0.00 0.00 0.00 92 1018.2
20260831135319 82 96 1.7 5.2 0.00 0.00 0.00 92 1018.2
20260831135033 82 96 1.7 5.2 0.00 0.00 0.00 92 1018.2
20260831134503 82 83 1.7 5.2 0.00 0.00 0.00 93 1018.1
20260831134002 81 55 0.9 2.6 0.00 0.00 0.00 93 1018.2
20260831131047 80 38 0.9 1.7 0.00 0.00 0.00 95 1017.8
20260831130834 80 38 0.9 1.7 0.00 0.00 0.00 95 1017.8
20260831130332 80 27 0.9 1.7 0.00 0.00 0.00 96 1017.9
20260831130053 79 54 0.9 2.6 0.00 0.00 0.00 96 1017.9
20260831125803 79 54 0.9 2.6 0.00 0.00 0.00 96 1017.9
20260831125525 79 70 0.9 2.6 0.00 0.00 0.00 96 1017.8
20260831125234 79 70 0.9 2.6 0.00 0.00 0.00 96 1017.8
20260831124938 79 48 0.9 2.6 0.00 0.00 0.00 97 1017.8
20260831124734 79 48 0.9 2.6 0.00 0.00 0.00 97 1017.8
20260831124331 79 49 0.9 2.6 0.00 0.00 0.00 96 1017.8
20260831124234 79 49 0.9 2.6 0.00 0.00 0.00 96 1017.8
20260831123204 78 41 0.9 3.5 0.00 0.00 0.00 98 1017.6
20260831120741 77 39 0.9 2.6 0.00 0.00 0.00 99 1017.5
20260831120604 77 39 0.9 2.6 0.00 0.00 0.00 99 1017.5
20260831120338 77 27 0.9 2.6 0.00 0.00 0.00 100 1017.4
20260831120104 77 27 0.9 2.6 0.00 0.00 0.00 100 1017.4
20260831113720 77 34 0.9 1.7 0.00 0.00 0.00 100 1017.1
20260831113503 77 34 0.9 1.7 0.00 0.00 0.00 100 1017.1
20260831112204 76 71 0.9 1.7 0.00 0.00 0.00 100 1016.9
20260831111906 76 71 0.9 1.7 0.00 0.00 0.00 100 1016.9
20260831110625 76 0 0.0 0.0 0.00 0.00 0.00 99 1016.6
20260831110333 76 0 0.0 0.0 0.00 0.00 0.00 99 1016.6
20260831110017 76 0 0.0 0.0 0.00 0.00 0.00 99 1016.5
20260831105804 76 0 0.0 0.0 0.00 0.00 0.00 99 1016.5
20260831105234 76 0 0.0 0.0 0.00 0.00 0.00 99 1016.4
20260831104732 76 0 0.0 0.0 0.00 0.00 0.00 99 1016.2
20260831102821 76 0 0.0 0.0 0.00 0.00 0.00 99 1016.2
20260831102603 76 0 0.0 0.0 0.00 0.00 0.00 99 1016.2
20260831101504 76 98 0.0 0.9 0.00 0.00 0.00 99 1016.2
20260831100502 76 98 0.0 0.9 0.00 0.00 0.00 99 1016.2
20260831100247 75 77 0.9 1.7 0.00 0.33 0.00 100 1016.8
20260831094655 76 0 0.0 0.0 0.00 0.00 0.00 99 1016.1
20260831094433 76 0 0.0 0.0 0.00 0.00 0.00 99 1016.1
20260831093654 76 0 0.0 0.0 0.00 0.00 0.00 99 1016.1
20260831093403 76 0 0.0 0.0 0.00 0.00 0.00 99 1016.1
20260831093159 76 0 0.0 0.0 0.00 0.00 0.00 99 1016.2
20260831092904 76 0 0.0 0.0 0.00 0.00 0.00 99 1016.2
20260831092555 76 0 0.0 2.6 0.00 0.00 0.00 99 1016.1
20260831092332 76 0 0.0 2.6 0.00 0.00 0.00 99 1016.1
20260831091832 76 98 0.0 2.6 0.00 0.00 0.00 99 1016.1
20260831091218 76 102 1.7 3.5 0.00 0.00 0.00 99 1016.1
20260831090832 76 102 1.7 3.5 0.00 0.00 0.00 99 1016.1
20260831090636 76 104 0.9 3.5 0.00 0.00 0.00 99 1016.0
20260831090332 76 104 0.9 3.5 0.00 0.00 0.00 99 1016.0
20260831085311 76 107 0.0 0.9 0.00 0.00 0.00 98 1016.1
20260831085056 76 107 0.0 0.9 0.00 0.00 0.00 98 1016.1
20260831084313 76 0 0.0 0.0 0.00 0.00 0.00 98 1016.1
20260831084055 76 0 0.0 0.0 0.00 0.00 0.00 98 1016.1
20260831083754 76 0 0.0 0.0 0.00 0.00 0.00 98 1016.1
20260831083525 76 0 0.0 0.0 0.00 0.00 0.00 98 1016.1
20260831082131 77 100 1.7 2.6 0.00 0.00 0.00 98 1016.0
20260831081925 77 100 1.7 2.6 0.00 0.00 0.00 98 1016.0
20260831081355 77 96 1.7 5.2 0.00 0.00 0.00 98 1016.1
20260831081115 77 93 1.7 5.2 0.00 0.00 0.00 98 1016.0
20260831080855 77 93 1.7 5.2 0.00 0.00 0.00 98 1016.0
20260831080325 77 95 1.7 5.2 0.00 0.00 0.00 98 1016.1
20260831080039 77 95 2.6 5.2 0.00 0.00 0.00 97 1016.1
20260831075825 77 95 2.6 5.2 0.00 0.00 0.00 97 1016.1
20260831075255 77 94 1.7 3.5 0.00 0.00 0.00 97 1016.1
20260831074725 77 93 1.7 3.5 0.00 0.00 0.00 97 1016.2
20260831074401 77 89 1.7 3.5 0.00 0.00 0.00 97 1016.3
20260831074225 77 89 1.7 3.5 0.00 0.00 0.00 97 1016.3
20260831073655 77 96 2.6 3.5 0.00 0.00 0.00 97 1016.4
20260831073325 77 99 2.6 3.5 0.00 0.00 0.00 96 1016.4
20260831073155 77 99 2.6 3.5 0.00 0.00 0.00 96 1016.4
20260831072306 77 96 2.6 5.2 0.00 0.00 0.00 97 1016.4
20260831072126 77 96 2.6 5.2 0.00 0.00 0.00 97 1016.4
20260831071745 78 93 2.6 5.2 0.00 0.00 0.00 96 1016.5
20260831071555 78 93 2.6 5.2 0.00 0.00 0.00 96 1016.5
20260831071319 78 95 3.5 6.1 0.00 0.00 0.00 96 1016.4
20260831071055 78 95 3.5 6.1 0.00 0.00 0.00 96 1016.4
20260831070529 78 94 3.5 6.1 0.00 0.00 0.00 97 1016.4
20260831070025 78 90 2.6 6.1 0.00 0.00 0.00 97 1016.5
20260831065455 78 86 1.7 6.1 0.00 0.00 0.00 97 1016.5
20260831064455 78 83 0.9 2.6 0.00 0.00 0.00 97 1016.5
20260831062855 78 80 0.9 1.7 0.00 0.00 0.00 97 1016.6
20260831062355 78 84 0.9 1.7 0.00 0.00 0.00 97 1016.6
20260831061855 78 92 0.9 2.6 0.00 0.00 0.00 97 1016.6
20260831061355 78 90 0.9 2.6 0.00 0.00 0.00 97 1016.7
20260831060325 78 89 1.7 3.5 0.00 0.00 0.00 97 1016.8
20260831055755 78 94 1.7 3.5 0.00 0.00 0.00 97 1016.9
20260831055225 78 98 2.6 3.5 0.00 0.00 0.00 97 1016.8
20260831054725 78 100 2.6 5.2 0.00 0.00 0.00 97 1016.9
20260831053126 78 100 1.7 3.5 0.00 0.00 0.00 97 1017.2
20260831052555 78 101 1.7 2.6 0.00 0.00 0.00 97 1017.3
20260831052025 78 95 1.7 3.5 0.00 0.00 0.00 97 1017.3
20260831051526 78 92 1.7 5.2 0.00 0.00 0.00 97 1017.3
20260831051025 78 98 2.6 5.2 0.00 0.00 0.00 97 1017.4
20260831045925 78 102 2.6 5.2 0.00 0.00 0.00 96 1017.4
20260831045355 78 99 2.6 5.2 0.00 0.00 0.00 96 1017.4
20260831044855 78 94 2.6 5.2 0.00 0.00 0.00 96 1017.4
20260831044355 78 95 2.6 5.2 0.00 0.00 0.00 96 1017.4
20260831043825 78 96 1.7 5.2 0.00 0.00 0.00 96 1017.4
20260831043325 78 96 1.7 3.5 0.00 0.00 0.00 96 1017.4
20260831042825 78 98 0.9 3.5 0.00 0.00 0.00 96 1017.6
20260831041755 78 91 0.9 1.7 0.00 0.00 0.00 95 1017.5
20260831041255 78 100 0.9 2.6 0.00 0.00 0.00 95 1017.6
20260831040725 78 103 0.9 2.6 0.00 0.00 0.00 95 1017.6
20260831040155 78 83 0.0 0.9 0.00 0.00 0.00 96 1017.6
20260831035655 78 83 0.9 1.7 0.00 0.00 0.00 96 1017.6
20260831034555 77 99 0.9 3.5 0.00 0.00 0.00 96 1017.4
20260831034025 77 98 0.9 5.2 0.00 0.00 0.00 96 1017.6
20260831033455 77 87 0.9 5.2 0.00 0.00 0.00 96 1017.7
20260831031855 77 222 0.0 0.9 0.00 0.00 0.00 96 1017.6
20260831031325 77 222 0.0 0.9 0.00 0.00 0.00 95 1017.7
20260831030825 77 0 0.0 0.0 0.00 0.00 0.00 95 1017.7
20260831030325 77 0 0.0 0.0 0.00 0.00 0.00 95 1017.6
20260831025755 77 222 0.0 0.9 0.00 0.00 0.00 95 1017.5
20260831024754 77 222 0.0 0.9 0.00 0.00 0.00 95 1017.7
20260831024224 77 0 0.0 0.0 0.00 0.00 0.00 95 1017.6
20260831023655 77 0 0.0 0.0 0.00 0.00 0.00 95 1017.7
20260831023637 77 0 0.0 0.0 0.00 0.00 0.00 95 1017.7
20260831023155 77 0 0.0 0.0 0.00 0.00 0.00 95 1017.7
20260831021719 78 222 0.0 0.9 0.00 0.00 0.00 94 1017.8
20260831021555 78 222 0.0 0.9 0.00 0.00 0.00 94 1017.8
20260831021024 78 222 0.0 0.9 0.00 0.00 0.00 94 1017.8
20260831020455 78 0 0.0 0.9 0.00 0.00 0.00 94 1017.8
20260831015955 78 222 0.0 0.9 0.00 0.00 0.00 93 1018.0
20260831015424 78 222 0.0 0.9 0.00 0.00 0.00 93 1018.0
20260831015140 78 222 0.0 0.9 0.00 0.00 0.00 93 1017.9
20260831014924 78 222 0.0 0.9 0.00 0.00 0.00 93 1017.9
20260831014711 78 222 0.0 0.9 0.00 0.00 0.00 92 1018.0
20260831014425 78 222 0.0 0.9 0.00 0.00 0.00 92 1018.0
20260831013925 78 222 0.0 0.9 0.00 0.00 0.00 92 1017.9
20260831013634 78 222 0.9 1.7 0.00 0.00 0.00 92 1017.9
20260831013355 78 222 0.9 1.7 0.00 0.00 0.00 92 1017.9
20260831012825 78 222 0.0 1.7 0.00 0.00 0.00 92 1017.9
20260831012254 78 222 0.0 0.9 0.00 0.00 0.00 91 1017.9
20260831011754 79 222 0.9 0.9 0.00 0.00 0.00 92 1018.0
20260831010725 79 222 0.0 0.9 0.00 0.00 0.00 93 1017.9
20260831010530 79 222 0.0 0.9 0.00 0.00 0.00 93 1017.8
20260831010225 79 222 0.0 0.9 0.00 0.00 0.00 93 1017.8
20260831010002 79 222 0.0 0.9 0.00 0.00 0.00 92 1017.7
20260831005724 79 222 0.0 0.9 0.00 0.00 0.00 92 1017.7
20260831005155 79 222 0.0 0.9 0.00 0.00 0.00 92 1017.7
20260831004953 79 222 0.0 0.9 0.00 0.00 0.00 92 1017.7
20260831004655 79 222 0.0 0.9 0.00 0.00 0.00 92 1017.7
20260831002555 79 222 0.0 0.9 0.00 0.00 0.00 91 1017.4
20260831002025 79 222 0.0 0.9 0.00 0.00 0.00 91 1017.4
20260831001911 80 222 0.0 0.9 0.00 0.00 0.00 90 1017.3
20260831001524 80 222 0.0 0.9 0.00 0.00 0.00 90 1017.3
20260831001025 80 222 0.0 0.9 0.00 0.01 0.00 90 1017.2
20260831000926 80 222 0.0 0.9 0.00 0.01 0.00 89 1017.1
20260831000525 80 222 0.0 0.9 0.00 0.01 0.00 89 1017.1
20260831000313 80 222 0.0 0.9 0.00 0.01 0.00 89 1017.0
20260831000024 80 222 0.0 0.9 0.00 0.01 0.00 89 1017.0
20260830235525 80 222 0.0 0.9 0.00 0.01 0.00 89 1017.0
20260830234231 80 222 0.0 0.9 0.00 0.02 0.00 89 1016.7
20260830233955 80 222 0.0 0.9 0.00 0.02 0.00 89 1016.7
20260830233425 80 222 0.0 0.9 0.00 0.03 0.00 88 1016.7
20260830232926 80 222 0.0 0.9 0.00 0.03 0.00 88 1016.8
20260830232355 80 222 0.0 0.9 0.00 0.03 0.00 89 1016.8
20260830232138 80 222 0.0 0.9 0.00 0.04 0.00 89 1016.8
20260830231825 80 222 0.0 0.9 0.00 0.04 0.00 89 1016.8
20260830230225 80 0 0.0 1.7 0.00 0.04 0.00 89 1016.8
20260830223024 80 237 1.7 3.5 0.00 0.08 0.00 88 1016.8
20260830222524 81 226 0.9 3.5 0.00 0.09 0.00 88 1016.8
20260830222024 81 188 0.9 2.6 0.00 0.10 0.00 88 1016.9
20260830221525 81 196 0.9 2.6 0.00 0.12 0.00 88 1016.8
20260830221024 81 184 0.9 2.6 0.00 0.12 0.00 88 1016.7
20260830220144 81 168 0.9 4.3 0.00 0.13 0.00 87 1016.5
20260830215924 81 168 0.9 4.3 0.00 0.13 0.00 87 1016.5
20260830215712 81 176 0.9 4.3 0.00 0.13 0.00 87 1016.6
20260830215424 81 176 0.9 4.3 0.00 0.13 0.00 87 1016.6
20260830215146 81 177 1.7 4.3 0.00 0.13 0.00 87 1016.6
20260830214924 81 177 1.7 4.3 0.00 0.13 0.00 87 1016.6
20260830214713 81 194 1.7 4.3 0.00 0.13 0.00 87 1016.6
20260830214426 81 194 1.7 4.3 0.00 0.13 0.00 87 1016.6
20260830213354 82 187 2.6 9.6 0.00 0.14 0.00 84 1016.5
20260830213130 82 190 2.6 9.6 0.00 0.14 0.00 84 1016.5
20260830212855 82 190 2.6 9.6 0.00 0.14 0.00 84 1016.5
20260830212324 83 191 2.6 6.1 0.00 0.14 0.00 82 1016.6
20260830211824 83 183 2.6 8.7 0.00 0.14 0.00 82 1016.5
20260830210755 84 126 2.6 7.8 0.00 0.21 0.00 82 1016.5
20260830210502 84 109 2.6 7.8 0.00 0.25 0.00 81 1016.7
20260830210225 84 109 2.6 7.8 0.00 0.25 0.00 81 1016.7
20260830205724 84 104 3.5 7.8 0.00 0.30 0.00 83 1016.7
20260830205225 84 99 4.3 8.7 0.00 0.32 0.00 84 1016.8
20260830204724 84 114 2.6 8.7 0.00 0.33 0.00 83 1016.9
20260830203655 84 103 6.1 12.2 0.00 0.33 0.00 86 1016.7
20260830203154 84 102 7.0 12.2 0.00 0.33 0.00 85 1016.5
20260830202654 85 103 7.8 13.9 0.00 0.33 0.00 86 1016.6
20260830201554 85 101 8.7 14.8 0.00 0.33 0.00 86 1016.5
20260830201231 85 100 8.7 13.0 0.00 0.33 0.00 87 1016.5
20260830201055 85 100 8.7 13.0 0.00 0.33 0.00 87 1016.5